Randolph AFB, TX

5:03 PM CDT on April 26, 2017 (GMT -0500)
Randolph Air Force Base

Weather History for KRND - January, 2013

Change the Weather History Date:

Monday, January 7, 2013

  Actual Average Record
Temperature  
Mean Temperature 44 °F -  
Max Temperature 56 °F 60 °F 77 °F (2006)
Min Temperature 32 °F 41 °F 17 °F (2014)
Degree Days  
Heating Degree Days 21    
Moisture  
Dew Point 39 °F    
Average Humidity 73    
Maximum Humidity 94    
Minimum Humidity 49    
Precipitation  
Precipitation 0.00 in - - ()
Sea Level Pressure  
Sea Level Pressure 30.16 in    
Wind  
Wind Speed 7 mph (NE)    
Max Wind Speed 9 mph    
Max Gust Speed -    
Visibility 10 miles    
Events      
Averages and records for this station are not official NWS values.
T = Trace of Precipitation, MM = Missing Value Source: NWS Daily Summary

Daily Weather History Graph

Daily Weather History Graph

Search for Another Location

Airport or City:

Trip Planner

Search our weather history database for the weather conditions in past years. The results will help you decide how hot, cold, wet, or windy it might be!

Date:

Astronomy

Jan. 07, 2013 Rise Set
Actual Time 7:29 AM CST 5:50 PM CST
Civil Twilight 7:03 AM CST 6:16 PM CST
Nautical Twilight 6:33 AM CST 6:45 PM CST
Astronomical Twilight 6:04 AM CST 7:14 PM CST
Moon 2:59 AM CST (1/7) 1:58 PM CST (1/7)
Length of Visible Light 11h 13m
Length of Day
10h 21m
Waning Crescent, 22% of the Moon is Illuminated
Jan 7
Waning Crescent
Jan 11
New
Jan 18
First Quarter
Jan 26
Full
Feb 3
Last Quarter

Hourly Weather History & Observations

Time (CST) Temp. Windchill Dew Point Humidity Pressure Visibility Wind Dir Wind Speed Gust Speed Precip Events Conditions
12:55 AM 33.8 °F 26.4 °F 29.1 °F 83% 30.28 in 10.0 mi North 9.2 mph - N/A   Clear
1:55 AM 33.1 °F 25.5 °F 31.1 °F 92% 30.28 in 10.0 mi North 9.2 mph - N/A   Clear
2:55 AM 33.6 °F 26.2 °F 30.7 °F 89% 30.30 in 10.0 mi North 9.2 mph - N/A   Clear
3:55 AM 32.2 °F 24.4 °F 29.8 °F 91% 30.29 in 10.0 mi North 9.2 mph - N/A   Clear
4:55 AM 32.7 °F 25.0 °F 30.7 °F 92% 30.27 in 10.0 mi North 9.2 mph - N/A   Clear
5:55 AM 33.8 °F 27.7 °F 30.2 °F 87% 30.27 in 10.0 mi NNW 6.9 mph - N/A   Scattered Clouds
6:55 AM 34.3 °F 29.2 °F 30.6 °F 86% 30.26 in 10.0 mi North 5.8 mph - N/A   Scattered Clouds
7:55 AM 35.8 °F 30.9 °F 30.0 °F 80% 30.28 in 10.0 mi North 5.8 mph - N/A   Clear
8:55 AM 41.0 °F 37.1 °F 33.8 °F 76% 30.29 in 10.0 mi NNE 5.8 mph - N/A   Clear
9:55 AM 44.2 °F 40.3 °F 32.2 °F 63% 30.30 in 10.0 mi NE 6.9 mph - N/A   Clear
10:55 AM 48.0 °F - 38.1 °F 69% 30.29 in 10.0 mi ENE 9.2 mph - N/A   Mostly Cloudy
11:55 AM 50.9 °F - 37.4 °F 60% 30.25 in 10.0 mi NE 9.2 mph - N/A   Mostly Cloudy
12:55 PM 54.0 °F - 37.6 °F 54% 30.19 in 10.0 mi ENE 8.1 mph - N/A   Mostly Cloudy
1:55 PM 55.6 °F - 36.7 °F 49% 30.15 in 10.0 mi ENE 6.9 mph - N/A   Mostly Cloudy
2:55 PM 55.2 °F - 36.9 °F 50% 30.12 in 10.0 mi NE 6.9 mph - N/A   Partly Cloudy
2:58 PM 55.4 °F - 37.4 °F 51% 30.12 in 10.0 mi ENE 9.2 mph - N/A   Mostly Cloudy
3:55 PM 56.3 °F - 37.8 °F 50% 30.13 in 10.0 mi East 4.6 mph - N/A   Mostly Cloudy
4:55 PM 55.6 °F - 38.8 °F 53% 30.12 in 10.0 mi ENE 4.6 mph - N/A   Mostly Cloudy
5:55 PM 53.6 °F - 39.7 °F 59% 30.11 in 10.0 mi NE 5.8 mph - N/A   Partly Cloudy
6:55 PM 51.6 °F - 39.6 °F 63% 30.10 in 10.0 mi Calm Calm - N/A   Clear
7:55 PM 51.3 °F - 40.8 °F 67% 30.10 in 10.0 mi NE 4.6 mph - N/A   Overcast
8:13 PM 51.8 °F - 41.0 °F 67% 30.12 in 10.0 mi Calm Calm - N/A   Overcast
8:21 PM 51.8 °F - 41.0 °F 67% 30.12 in 10.0 mi NNE 3.5 mph - N/A   Overcast
8:48 PM 51.8 °F - 41.0 °F 67% 30.11 in 10.0 mi NE 3.5 mph - N/A   Overcast
8:55 PM 51.4 °F - 42.1 °F 70% 30.11 in 10.0 mi NNE 3.5 mph - N/A   Overcast
9:11 PM 51.8 °F - 42.8 °F 71% 30.10 in 10.0 mi NE 3.5 mph - N/A   Overcast
9:55 PM 52.2 °F - 43.7 °F 73% 30.08 in 10.0 mi ENE 6.9 mph - N/A   Overcast
10:10 PM 51.8 °F - 44.6 °F 76% 30.08 in 10.0 mi ENE 5.8 mph - N/A   Overcast
10:11 PM 51.8 °F - 44.6 °F 76% 30.08 in 10.0 mi ENE 5.8 mph - N/A   Overcast
10:23 PM 51.8 °F - 44.6 °F 76% 30.07 in 10.0 mi ENE 6.9 mph - N/A   Overcast
10:29 PM 51.8 °F - 44.6 °F 76% 30.07 in 10.0 mi ENE 8.1 mph - N/A   Overcast
10:34 PM 51.8 °F - 44.6 °F 76% 30.07 in 10.0 mi ENE 5.8 mph - N/A   Overcast
10:55 PM 52.0 °F - 45.5 °F 79% 30.06 in 10.0 mi ENE 6.9 mph - N/A   Overcast
11:50 PM 51.8 °F - 48.2 °F 88% 30.04 in 10.0 mi ENE 8.1 mph - N/A   Overcast
11:55 PM 50.7 °F - 48.2 °F 91% 30.04 in 10.0 mi ENE 6.9 mph - N/A   Overcast
11:57 PM 50.0 °F - 48.2 °F 94% 30.04 in 10.0 mi ENE 8.1 mph - N/A   Overcast